OneWeb SL0219

operational
NORAD ID: 48223 Int'l Des: 2021-031 Owner: ONEWEBN Country: UK Constellation: oneweb
LEOCIRCULARPOLARONEWEB_TYPE

OneWeb SL0219について

説明を読み込み中...

リアルタイム位置

3D地球を読み込み中...

次回通過

高度履歴

Altitude vs Time

uPlot chart will show altitude changes over time

軌道要素

1 48223U 21031P 26034.48444469 -.00000042 00000-0 -14681-3 0 9995
2 48223 87.9033 316.3539 0001970 81.7398 278.3955 13.14503435230816
Epoch: Feb 3, 2026 • Age: 12 hours

現在のステータス

高度 1216.1 km
速度 7.24 km/s
衛星直下点 -25.49°S, 8.66°E
打ち上げ日 Apr 25, 2021
運用期間 4.7 years
タイプ internet

技術仕様

分類 Payload
質量 148.00 kg
乾燥質量 140.00 kg
総質量 148.00 kg
長さ 1.30 m
直径 1.00 m
スパン 5.00 m
形状 Trapezoid+2 pan
製造者 ONEWUS
バスタイプ ARROW
フェーズステータス In Orbit
所有者/国 ONEWEBN/UK

大規模コンステレーション

Loading constellations...